Starlink 4423

operational
NORAD ID: 53209 Int'l Des: 2022-084 Owner: SPXS Country: US Constellation: starlink
LEOCIRCULARRETROGRADESSO

关于 Starlink 4423

正在加载描述...

实时位置

正在加载3D地球...

即将过境

高度历史

Altitude vs Time

uPlot chart will show altitude changes over time

两行轨道根数

1 53209U 22084W 25299.18054145 .00001944 00000-0 15585-3 0 9995
2 53209 97.6034 358.5257 0002240 89.3665 270.7816 15.01257611179131
Epoch: Oct 26, 2025 • Age: 10 hours

当前状态

高度 574.9 km
速度 7.58 km/s
星下点 80.47°N, 19.37°W
发射日期 Jul 22, 2022
运行时间 3.2 years
类型 internet

技术详情

分类 Payload
质量 297.00 kg
干质量 275.00 kg
总质量 297.00 kg
长度 0.20 m
直径 2.80 m
跨度 9.00 m
形状 Box + pan
制造商 SPXS
平台类型 Starlink
阶段状态 In Orbit
所有者/国家 SPXS/US

大型星座

Loading constellations...